Dewpoint
63 62 61 63 63 55 49 49 39 31 32 27 24 24 26 28 33 38 32 31 34 34 35 40 45 46 43 49 43 43 46 43 46 37 43 59 66 66 67 67 68 68 66 67 70 71 71 73 73 73 73 73 73 73 73 73 73 73 73 72 72 72 71 71 71 71 71 71 71 71 72 71 71 71 71 71 71 71 71 70 70 70 70 70 70 70 70 69 69 69 69 69 69 71 71 70 70
50 56 63 62 58 51 42 40 34 31 29 24 23 24 26 28 31 30 30 32 34 34 37 42 45 45 49 52 46 45 45 45 49 57 61 64 67 65 66 67 68 67 67 67 68 69 69 72 73 73 72 73 73 73 73 73 73 73 72 72 72 71 71 71 71 71 71 71 71 72 72 72 71 71 71 71 71 71 71 70 70 70 70 70 70 70 69 69 70 70 69 69 70 70 71 70 70
50 58 58 58 52 49 44 36 29 28 27 23 25 25 32 28 28 30 32 33 34 34 39 43 47 47 47 44 39 42 44 52 57 58 63 66 65 65 66 67 68 68 68 67 67 67 69 71 73 73 72 72 72 73 73 72 72 72 72 72 72 71 71 71 71 72 72 72 72 72 72 71 71 71 71 71 71 71 71 70 70 70 70 70 69 70 69 69 70 69 70 71 71 70 71 70 70
55 58 52 50 41 45 36 29 27 23 23 23 22 27 30 28 30 32 33 34 34 33 38 41 44 47 45 41 41 41 43 50 55 55 61 64 64 65 67 68 69 68 67 65 66 67 68 72 73 72 72 72 72 73 72 72 72 72 72 72 72 71 71 72 72 72 72 72 72 72 71 71 71 71 71 71 71 71 71 70 70 69 69 69 69 69 69 69 70 70 70 70 70 71 70 70 69
52 56 56 47 40 35 35 30 26 22 22 20 21 28 29 28 34 33 33 34 33 34 36 37 36 44 43 41 43 41 42 46 60 57 59 65 66 65 68 68 68 68 66 64 65 65 69 72 72 72 72 72 72 72 72 72 72 72 72 72 72 71 72 72 72 72 72 72 72 72 71 71 71 71 71 71 70 70 71 70 70 69 69 69 69 69 69 70 70 70 70 70 70 71 70 70 70
49 51 54 51 37 42 36 32 29 25 23 20 20 26 28 30 33 34 33 32 33 33 34 32 33 35 36 39 42 39 47 43 56 61 60 65 64 68 68 69 68 67 65 66 67 67 68 73 72 72 72 72 72 72 72 72 72 72 72 72 72 72 72 72 73 72 72 72 72 72 72 71 71 71 72 72 71 70 70 70 70 70 69 69 69 69 70 70 70 71 70 71 71 71 70 70 69
44 48 45 42 42 42 30 26 24 22 22 25 24 31 30 35 36 34 32 31 32 31 34 29 30 31 31 36 37 47 53 54 53 62 63 65 65 67 69 68 67 67 66 66 66 67 67 73 72 72 73 72 72 72 72 72 72 72 72 72 72 72 72 72 72 72 72 71 71 71 72 72 71 72 72 72 71 70 70 70 69 70 70 69 69 69 70 70 71 70 71 71 71 71 70 70 70
49 41 40 35 30 34 28 27 23 24 23 30 27 32 35 36 36 34 32 29 31 30 30 28 27 30 35 36 37 48 56 58 59 63 64 65 66 67 68 67 67 67 65 67 67 67 72 73 72 72 72 72 72 72 72 72 72 72 72 72 72 72 72 72 72 72 72 72 72 72 72 72 72 72 72 72 71 70 70 70 70 70 70 70 70 70 70 71 71 71 71 71 70 70 70 70 70
45 45 43 36 30 33 24 23 23 26 27 33 33 37 41 37 35 33 31 30 29 29 28 25 24 27 34 35 35 48 59 61 63 66 65 65 66 68 67 67 66 67 65 64 67 69 69 72 72 72 72 72 72 72 72 72 72 72 72 72 72 72 72 72 71 72 72 71 72 72 72 71 72 72 72 72 72 70 70 70 71 71 71 71 71 71 71 71 71 71 71 71 70 70 70 69 69
38 36 34 30 30 30 23 24 26 22 31 31 28 30 32 35 32 32 31 28 27 27 24 24 24 27 27 29 30 33 62 63 65 64 65 66 67 69 68 66 66 66 65 64 67 67 68 72 72 72 72 72 72 72 72 72 72 72 72 72 72 72 72 72 72 72 71 71 72 71 71 71 71 71 72 71 72 71 71 71 72 72 71 71 72 72 71 71 71 71 71 71 70 70 69 69 69
32 32 37 26 27 26 25 18 22 26 29 29 30 33 34 34 33 29 29 27 26 24 22 21 21 28 25 28 31 58 63 65 63 65 65 66 69 69 67 66 66 67 65 66 67 65 68 69 72 72 72 72 72 72 72 72 72 72 72 73 72 72 72 72 72 72 71 71 71 71 71 71 71 71 71 71 71 71 71 70 71 71 72 71 72 71 71 71 71 70 71 70 70 69 69 68 67
29 27 34 26 24 24 18 19 22 25 30 28 28 29 30 31 31 27 25 26 22 21 20 18 20 20 22 25 30 60 62 65 66 66 65 67 68 68 68 68 66 66 66 66 66 67 66 68 69 72 72 72 72 72 72 72 72 73 73 73 72 72 72 72 72 71 71 71 71 71 71 71 71 71 71 71 71 71 71 71 71 71 71 71 71 71 71 71 71 71 70 70 69 68 68 67 67
31 27 27 21 18 19 18 19 21 26 25 27 24 25 29 29 26 25 25 24 21 18 18 15 17 23 25 25 32 59 60 65 66 66 66 67 68 68 68 68 68 66 66 66 65 65 65 66 65 68 70 72 72 72 72 73 73 73 73 72 72 72 72 72 71 71 71 71 71 71 71 71 71 71 71 71 71 71 71 71 71 71 71 71 71 71 71 71 71 71 70 70 68 68 67 67 66
26 26 27 21 18 20 21 21 19 19 22 20 24 26 28 24 24 26 24 20 18 16 16 15 21 29 27 26 28 40 62 64 65 66 66 66 68 68 69 69 68 67 67 65 64 63 64 63 65 66 68 69 70 72 72 72 73 73 73 72 72 72 72 71 71 71 71 71 71 71 71 71 71 71 71 71 71 71 71 71 71 71 71 71 71 71 71 71 70 70 70 69 68 68 67 67 66
25 29 25 22 18 22 19 19 14 19 15 18 25 25 23 25 24 24 19 16 15 16 16 17 23 23 26 30 32 51 64 65 66 66 66 66 68 68 69 68 68 68 67 64 64 63 61 61 62 65 66 64 67 69 69 71 72 72 72 72 72 72 71 71 71 71 71 71 71 71 70 70 70 70 70 70 70 70 71 71 71 71 71 71 71 71 71 71 70 69 69 68 68 67 67 66 66
26 30 24 20 15 18 16 18 18 18 15 22 26 24 22 22 23 18 17 15 15 16 16 15 26 22 28 31 32 42 60 64 65 66 66 66 67 67 69 69 68 67 67 67 64 63 60 60 62 64 65 66 65 66 68 70 71 71 72 72 72 71 71 71 71 71 71 71 71 70 70 70 70 70 71 70 70 71 70 70 71 71 71 71 71 70 70 70 70 69 69 68 68 67 67 67 66
30 26 20 19 17 15 13 20 17 17 14 24 25 21 17 17 20 20 19 18 17 15 14 15 15 26 27 32 40 48 60 64 67 67 66 67 67 68 69 70 68 67 67 66 64 63 60 58 60 63 64 66 66 67 67 69 68 71 71 71 71 71 71 71 71 71 70 70 70 70 71 70 70 70 70 69 71 69 71 71 71 71 71 70 70 70 70 70 69 69 69 68 68 67 67 67 66
24 21 21 19 13 12 14 17 18 19 18 21 22 20 18 18 20 20 19 18 17 16 15 16 17 17 20 35 42 52 63 64 65 65 65 66 67 67 67 67 67 67 68 68 65 63 63 60 60 59 63 64 65 66 64 66 69 69 69 70 70 71 71 70 71 70 70 70 71 71 69 68 67 67 69 69 69 70 70 71 71 71 71 70 70 70 70 70 69 69 69 68 68 68 68 64 64
20 17 17 13 14 13 20 19 20 20 16 19 21 22 21 19 20 19 16 16 17 16 15 15 16 17 22 45 53 55 62 64 64 64 65 65 64 64 65 67 67 65 66 67 66 65 65 64 60 58 61 63 65 64 63 66 66 65 66 67 68 69 70 70 68 68 67 65 65 65 67 68 65 66 68 67 69 69 70 71 71 71 71 70 70 70 70 70 69 69 68 68 68 69 65 63 60
18 19 16 15 14 20 23 21 21 21 19 21 21 21 21 20 18 20 17 16 16 15 15 16 16 17 22 44 54 60 62 62 63 64 62 63 62 63 64 65 65 65 65 66 65 65 64 64 61 60 62 63 65 64 65 66 65 66 65 65 67 68 69 68 67 67 65 63 63 66 65 68 67 68 70 71 70 68 70 71 71 70 70 70 70 70 70 70 70 69 69 69 69 67 63 60 60
19 17 12 9 16 19 19 19 19 20 20 19 19 20 18 18 18 16 15 13 12 13 14 16 15 17 22 42 54 59 60 61 62 62 63 62 62 63 64 65 66 67 68 70 70 65 64 68 65 63 63 65 62 64 65 64 66 64 65 65 65 65 66 66 66 67 67 65 65 64 64 68 67 67 68 68 68 68 68 69 69 68 68 69 69 67 69 68 67 63 64 67 64 62 61 62 62
18 9 9 12 16 12 12 16 17 18 18 18 17 16 14 14 13 12 11 9 8 8 11 13 17 22 30 38 54 58 59 60 61 62 62 64 64 64 66 65 64 65 66 68 67 68 68 70 71 68 64 63 63 64 63 64 66 62 64 65 65 65 65 65 65 67 68 68 63 62 65 68 68 67 67 66 68 69 68 67 68 68 67 67 67 67 66 67 65 64 65 63 63 63 62 63 62
11 11 11 13 13 11 12 14 14 15 14 14 14 15 15 12 11 11 10 7 7 8 8 9 11 21 39 46 52 58 58 58 61 62 64 64 65 66 67 67 65 63 67 66 65 68 69 69 70 67 65 63 66 64 63 66 63 63 64 65 65 64 65 65 65 65 67 68 64 65 64 65 65 66 67 66 65 66 66 67 67 67 67 67 67 66 67 67 65 65 64 64 62 62 61 62 61
8 4 6 5 7 6 7 7 9 11 12 12 13 12 10 11 8 10 10 10 9 7 6 14 24 39 46 47 54 57 58 59 61 63 64 65 67 66 68 68 67 66 66 65 64 67 69 68 70 67 66 65 66 63 66 64 64 65 64 65 63 64 63 64 64 66 67 67 68 66 64 64 64 65 68 67 66 66 65 65 67 65 66 65 67 67 66 65 65 65 66 64 61 62 60 61 61
3 3 4 5 5 5 5 4 4 6 8 9 8 10 10 11 10 8 9 10 9 7 8 19 36 46 49 55 52 54 58 60 62 64 66 65 67 68 69 67 67 68 66 66 67 67 68 68 68 70 68 67 65 66 65 62 65 65 66 64 63 67 65 64 65 68 67 66 69 67 66 63 61 63 65 67 67 67 66 66 64 64 65 64 66 66 66 66 66 66 66 64 65 63 62 63 61
6 5 5 6 5 5 4 4 4 4 5 7 8 8 8 8 6 7 7 7 6 6 6 17 34 41 45 49 51 53 56 59 62 65 65 67 68 68 64 64 64 64 66 67 67 68 69 70 69 68 68 70 67 67 66 67 67 66 65 64 65 66 65 66 69 66 66 65 65 67 66 66 63 60 63 62 64 67 67 69 67 66 65 65 66 67 67 66 66 66 66 65 62 64 63 63 62
6 6 5 6 4 4 4 4 4 4 4 5 5 4 2 3 3 1 6 11 8 5 6 11 31 35 42 49 54 52 54 58 61 64 65 67 64 63 63 63 63 65 64 66 68 67 68 67 67 68 70 70 69 67 68 69 68 67 66 65 67 64 66 69 67 66 66 66 66 69 68 68 67 64 64 62 62 62 64 66 66 65 64 64 65 65 67 67 67 66 67 66 65 64 63 63 62
7 7 5 4 5 5 5 4 5 3 2 4 3 1 2 2 2 1 15 16 10 6 6 7 10 22 29 40 47 52 57 59 60 64 65 67 61 60 61 63 63 63 64 65 66 66 66 67 68 68 69 71 69 69 68 68 68 67 67 66 66 65 69 66 65 67 66 66 67 69 69 68 67 67 66 63 62 61 60 60 63 63 63 64 64 65 65 66 66 65 66 68 68 67 65 65 64
8 8 3 3 3 2 5 4 4 5 1 3 3 1 -0 1 -1 20 25 21 12 6 7 7 7 6 18 36 42 48 50 54 58 60 63 63 61 61 61 64 64 64 66 67 66 66 66 68 68 68 69 70 70 68 68 69 68 66 67 66 66 66 68 66 65 66 68 68 69 69 69 68 68 67 68 66 63 60 61 62 59 62 63 64 65 65 64 66 65 66 67 67 66 67 66 66 63
8 5 3 1 1 1 6 5 4 2 3 2 2 -2 -1 7 22 28 32 26 16 5 5 4 4 14 10 16 30 44 50 54 58 60 61 62 61 63 62 63 65 67 65 68 66 65 66 68 68 68 69 69 70 69 69 68 68 67 67 66 67 67 66 65 66 67 67 68 69 69 69 68 67 67 66 67 64 62 65 62 60 59 61 63 66 66 64 63 63 64 64 65 64 65 64 65 64
4 4 3 1 0 1 8 7 5 1 3 2 2 0 -2 23 29 35 34 33 19 5 1 5 24 22 16 14 22 36 49 55 57 59 64 65 63 64 63 63 65 66 66 67 67 67 66 68 68 67 69 69 69 70 70 69 69 67 67 67 67 67 66 66 66 67 67 67 67 67 69 69 67 67 66 67 65 64 62 59 61 58 63 63 62 62 63 64 63 63 62 62 64 64 63 63 61
4 -1 0 -0 -3 6 9 9 7 5 4 2 1 -1 2 25 33 36 36 33 28 23 28 33 37 38 32 27 27 32 47 52 59 60 64 65 67 64 64 65 66 65 67 67 68 67 67 69 69 68 69 69 70 69 69 69 69 69 68 67 68 68 65 65 65 66 66 65 66 67 68 68 68 69 68 68 67 64 60 60 60 62 64 61 60 62 63 61 62 62 63 63 62 60 62 63 62
5 1 6 3 -3 4 6 8 9 7 4 2 0 -4 -3 27 33 36 37 34 31 33 36 41 41 42 42 42 40 38 43 54 58 60 62 64 64 65 65 66 67 66 66 68 68 68 68 69 68 68 68 69 69 70 69 70 69 69 69 68 68 68 66 64 64 65 66 67 65 65 68 69 68 69 69 68 67 65 61 62 59 66 66 60 63 62 60 60 62 59 64 63 63 60 57 59 60
8 4 10 8 1 3 2 10 9 7 4 2 0 -4 24 31 34 35 37 35 32 34 38 41 43 46 47 48 47 47 48 46 53 56 60 61 62 64 67 65 65 65 66 67 68 68 68 68 68 68 68 69 70 70 69 69 69 69 68 68 68 67 68 63 62 63 65 66 66 65 68 68 68 68 69 68 67 65 63 62 64 68 63 64 64 63 59 60 62 60 62 62 61 60 57 58 60
15 12 15 7 6 7 7 4 9 8 6 8 11 11 28 31 32 33 36 36 34 37 38 40 42 46 49 49 49 51 50 51 51 53 55 57 61 64 66 66 64 63 65 67 67 68 69 69 69 68 69 69 69 69 70 68 68 68 67 68 67 67 67 65 62 62 64 67 67 67 67 68 68 68 68 69 69 66 63 63 65 68 64 65 66 63 63 63 63 63 62 61 61 59 58 60 61
10 10 12 10 7 4 3 8 11 11 9 7 11 13 24 30 32 33 34 35 36 37 41 41 44 45 47 49 50 50 50 51 54 57 57 54 58 64 65 65 65 64 64 66 65 66 65 65 67 68 68 68 69 68 68 67 67 67 65 66 66 65 66 64 63 63 65 65 66 67 67 68 66 68 68 68 69 67 64 63 65 67 65 65 66 64 63 61 65 66 64 62 62 59 60 61 62
13 11 10 8 8 10 12 10 12 11 11 16 17 21 24 29 32 34 35 37 37 38 42 42 42 45 47 48 48 50 51 52 55 57 58 58 57 62 65 65 64 63 63 64 64 64 65 65 65 67 68 68 68 67 67 66 65 65 65 65 65 66 64 63 64 65 65 65 66 66 67 67 67 68 67 67 68 68 67 65 66 66 66 65 67 66 66 64 65 66 64 64 62 60 59 60 63
13 12 10 9 7 5 10 10 12 12 8 16 22 21 26 30 32 34 35 37 38 40 41 43 44 45 47 48 48 48 49 49 53 56 58 58 56 62 64 64 65 63 63 64 63 64 66 65 67 67 68 68 68 67 66 66 66 64 64 64 64 63 63 62 63 65 67 66 67 67 67 67 67 67 67 67 67 67 68 66 67 66 66 66 68 67 67 67 67 67 66 63 61 58 59 60 63
14 13 13 10 9 7 14 12 12 12 8 9 19 19 27 31 33 34 36 37 41 41 42 44 46 46 45 46 46 48 49 50 52 54 56 56 59 61 63 64 64 65 65 64 65 65 66 66 67 68 67 67 67 67 66 66 66 66 64 64 63 62 63 64 63 65 66 65 68 67 67 67 66 66 67 67 67 67 68 67 67 66 68 67 67 68 67 67 68 68 67 62 58 59 57 64 66
17 14 14 12 12 9 9 9 13 12 10 10 15 17 28 32 34 35 37 36 39 40 40 42 45 45 45 46 47 48 48 50 53 54 56 59 58 60 63 63 64 65 64 64 65 66 66 66 67 67 67 67 66 67 67 67 67 67 66 67 66 65 63 64 66 66 65 66 67 67 66 67 66 66 66 66 66 67 67 67 68 66 68 68 68 67 67 66 67 68 67 65 61 58 53 62 67
18 16 14 13 13 12 11 13 13 13 12 12 14 15 22 27 29 30 35 36 36 37 39 42 44 46 47 47 47 48 49 51 51 53 54 57 59 59 61 62 64 64 64 64 65 65 66 66 67 67 67 67 67 68 69 68 67 67 67 67 67 67 67 65 65 63 65 66 65 67 66 67 66 66 66 66 64 66 66 67 67 66 67 68 68 67 67 67 67 67 68 66 63 59 55 61 66
19 17 15 14 12 13 13 14 13 12 12 10 11 11 14 27 27 29 32 33 34 37 39 39 42 44 44 44 46 46 47 49 50 51 53 56 57 59 61 62 63 64 64 65 65 66 66 66 67 67 67 68 70 70 69 68 69 66 66 66 65 64 63 63 63 63 64 65 63 66 66 66 66 66 65 65 64 64 66 67 67 66 66 68 68 66 66 67 67 66 67 66 64 64 60 59 64
17 16 17 15 15 15 14 13 13 13 13 13 14 10 10 29 28 32 34 32 34 36 39 39 40 41 41 42 43 44 46 47 49 51 53 54 55 56 58 62 62 64 64 65 65 66 66 66 66 67 68 67 66 67 67 67 67 66 67 65 65 64 63 63 64 65 66 64 65 65 66 68 66 66 67 65 65 65 66 67 67 66 65 67 68 68 66 67 65 65 66 66 65 65 62 59 63
13 16 16 16 15 14 13 12 11 13 15 16 14 12 11 16 32 34 33 33 33 35 37 39 39 40 40 42 42 46 46 48 48 51 53 54 54 55 55 58 61 63 65 64 65 66 65 66 66 67 65 65 66 66 66 66 67 66 66 67 66 65 65 66 66 66 67 67 66 67 67 66 66 65 66 65 65 65 65 66 67 66 65 66 65 65 66 66 67 67 67 67 66 66 66 63 63
17 18 16 15 14 16 14 13 13 13 16 16 15 14 14 12 31 33 30 29 32 34 37 37 39 40 41 41 40 44 46 47 48 49 52 53 53 54 55 56 58 61 63 64 66 66 65 66 67 65 65 65 66 66 66 65 66 66 66 65 66 65 65 66 66 67 69 68 67 67 68 66 66 67 66 66 65 64 65 66 66 65 66 66 65 65 66 65 66 67 68 68 67 67 67 66 64
19 18 17 17 16 16 14 12 12 15 16 14 12 15 14 12 33 31 32 31 33 34 35 36 39 41 42 42 42 44 45 47 47 49 51 53 53 54 55 56 57 59 61 63 64 65 65 66 65 63 64 66 65 65 66 66 66 66 66 66 66 66 66 65 67 66 67 68 68 68 68 68 67 68 68 67 67 65 65 65 65 65 67 66 66 66 66 66 67 67 68 68 68 68 68 67 65
20 19 17 16 16 16 17 15 16 17 14 12 16 16 14 11 25 31 30 35 34 34 37 39 41 42 43 45 43 43 44 46 46 48 50 52 53 53 54 54 54 56 59 61 62 63 64 66 64 63 63 63 64 65 65 66 66 67 66 66 66 66 66 66 66 67 67 66 65 65 66 66 67 67 68 68 68 66 66 65 66 66 67 67 66 66 67 66 67 67 67 68 68 68 67 67 67
19 17 17 15 17 18 20 21 18 16 12 18 18 15 14 11 29 31 33 37 38 39 39 41 41 41 43 44 43 44 43 45 47 47 49 51 51 52 53 53 53 54 55 56 59 60 62 64 65 63 63 64 65 64 64 65 67 66 67 67 67 67 67 66 66 66 67 68 67 65 65 66 65 67 69 69 69 68 67 66 67 67 66 67 67 69 68 67 67 67 67 67 68 68 68 67 67
18 16 16 17 15 21 14 17 16 16 10 19 17 16 14 11 34 36 32 33 40 41 41 41 42 41 42 43 43 43 43 44 45 46 48 50 50 51 52 53 54 53 53 56 57 58 59 61 63 64 63 64 65 65 65 64 65 66 66 67 68 68 68 67 67 66 68 67 67 66 65 64 66 66 67 67 68 69 68 68 68 67 67 67 68 68 69 68 68 69 68 68 68 68 67 68 66
17 17 18 16 15 15 12 9 13 14 16 16 16 21 13 32 32 34 34 37 38 42 43 42 42 42 42 43 44 42 43 45 46 47 47 48 49 50 51 52 52 53 54 55 56 57 58 59 62 63 63 64 64 64 64 64 65 65 65 65 66 66 67 67 66 66 65 67 67 67 66 65 66 67 67 68 68 68 68 68 69 69 68 68 68 69 69 69 69 69 69 68 68 68 68 68 68
19 18 16 19 17 14 11 12 10 12 15 21 20 15 18 23 34 34 37 40 41 45 43 43 43 43 43 42 43 43 44 45 44 46 45 47 49 51 51 52 52 52 54 54 55 56 57 58 58 59 60 61 61 63 64 65 66 66 65 65 65 65 66 65 66 66 66 66 66 67 66 67 67 67 67 68 68 68 69 69 69 70 70 70 69 69 69 69 68 68 68 69 69 69 67 67 67
20 19 19 18 19 19 14 22 18 20 16 17 22 22 31 32 37 37 38 39 41 43 44 43 42 42 42 41 43 44 44 45 44 44 46 48 49 50 50 51 52 52 53 54 54 55 56 57 58 58 58 59 60 61 62 63 63 64 64 65 65 65 66 66 66 66 66 67 67 67 67 68 68 67 69 70 70 70 70 69 69 69 70 70 70 69 68 69 69 69 69 69 68 67 67 68 68
23 20 19 20 21 17 21 24 28 28 18 14 26 25 27 36 36 37 38 40 40 41 42 44 42 41 41 42 42 42 43 44 45 44 44 47 48 49 50 50 51 52 52 54 54 55 55 55 56 56 57 58 59 60 61 61 62 62 63 64 64 65 65 65 65 66 67 67 67 66 66 67 68 68 69 69 69 69 69 69 68 68 69 70 69 69 68 68 68 69 69 68 68 67 68 68 68
26 22 20 22 21 21 23 15 21 17 14 20 23 21 22 27 27 37 36 37 39 39 41 43 43 40 40 41 42 42 42 44 44 44 45 45 47 49 49 50 50 51 52 53 54 55 56 55 55 55 55 56 57 58 59 61 62 62 62 62 63 64 64 65 65 65 66 66 66 66 67 67 67 67 67 68 68 69 68 68 68 67 68 69 69 69 68 68 68 67 68 67 67 68 67 67 68
29 29 30 19 20 17 24 19 13 12 12 15 23 23 21 25 30 34 35 36 38 40 40 41 40 40 40 40 41 42 42 42 42 44 44 45 46 47 49 49 49 51 51 51 51 52 54 55 55 55 55 55 56 56 57 58 59 60 61 62 63 63 64 64 64 64 65 65 65 65 65 65 66 66 66 67 67 66 67 67 67 67 67 67 68 67 67 67 67 67 67 67 67 67 66 66 67
31 29 25 23 24 26 21 24 20 18 15 18 20 21 20 30 34 35 35 38 39 39 41 41 40 40 40 41 40 40 42 42 41 43 43 43 45 46 46 49 47 49 49 50 51 51 53 53 54 54 54 54 55 56 56 57 58 59 60 61 63 63 63 63 64 64 64 63 64 65 64 65 65 65 65 65 65 65 65 65 65 66 66 66 66 66 66 66 66 66 66 65 66 66 64 65 65
30 28 26 25 28 25 22 26 16 18 18 18 18 17 25 34 38 37 38 39 40 41 41 42 42 41 42 41 41 41 42 43 43 43 43 44 45 46 45 47 45 46 48 49 50 50 50 51 53 52 53 53 54 55 55 56 56 57 57 59 61 63 64 64 65 64 64 64 64 64 64 64 64 64 64 64 64 63 63 64 65 65 65 66 65 65 66 66 65 65 65 66 65 65 64 64 65
35 33 32 25 25 24 20 18 21 18 17 19 19 19 27 37 40 39 39 40 42 43 43 42 42 42 43 44 43 42 42 42 43 43 43 43 46 46 44 42 44 45 46 47 47 49 49 50 51 51 50 50 51 52 53 54 56 57 58 58 58 60 62 63 64 65 64 64 64 64 64 64 64 63 63 63 62 63 64 63 63 63 63 64 64 64 64 64 63 64 65 66 66 65 65 65 66